Weather Roundup
Issued by NWS Chicago, IL

Home | Current Version | Previous Version | Graphics & Text | Print | Product List | Glossary On
Versions: 1 2 3 4 5 6 7 8 9 10 11 12 13 14 15 16 17 18 19 20 21 22 23 24 25 26 27 28 29 30 31 32 33 34 35 36 37 38 39 40 41 42 43 44 45 46 47 48 49 50
000
NZUS59 KLOT 242310
HRRLOT

CHICAGO AREA WEATHER ROUNDUP
NATIONAL WEATHER SERVICE CHICAGO/ROMEOVILLE IL
600 PM CDT THU JUL 24 2014

NOTE: "FAIR" INDICATES FEW OR NO CLOUDS BELOW 12,000 FEET WITH NO
SIGNIFICANT WEATHER AND/OR OBSTRUCTIONS TO VISIBILITY.

* THESE STATIONS ARE NOT UNDER NWS QUALITY CONTROL. THEY ALSO MAY NOT
  REPORT WEATHER SUCH AS PRECIPITATION OR FOG.

ILZ005-006-012>014-019>023-250000-
NORTHEAST ILLINOIS

CITY           SKY/WX    TMP DP  RH WIND       PRES   REMARKS
OHARE          MOSUNNY   74  43  32 E7        30.09S
MIDWAY         MOSUNNY   73  46  38 E6        30.09S
AURORA         SUNNY     77  47  34 CALM      30.08F
LANSING*       SUNNY     70  49  47 E5        30.09F
JOLIET*        SUNNY     74  45  36 NE5       30.08F
WAUKEGAN       SUNNY     68  43  40 SE8       30.09F
DUPAGE AIRPORT SUNNY     76  46  34 CALM      30.07F
WHEELING       SUNNY     71  45  39 E6        30.10F
KANKAKEE*      SUNNY     73  54  49 CALM      30.09R
MORRIS*        SUNNY     75  49  39 CALM      30.07F
LEWIS AIRPORT* SUNNY     73  44  35 E6        30.08F
NORTHERLY IS   NOT AVBL
$$

WIZ051-052-058>065-066-070>072-250000-
SOUTHEAST WISCONSIN

CITY           SKY/WX    TMP DP  RH WIND       PRES   REMARKS
MILWAUKEE      MOSUNNY   68  44  42 SE10      30.09F
KENOSHA*       SUNNY     70  45  40 E7        30.10F
RACINE*        SUNNY     68  41  37 SE9       30.11F
BURLINGTON     SUNNY     71  50  48 E10       30.08F
WAUKESHA       MOSUNNY   72  46  40 SE7       30.09F
WEST BEND      PTSUNNY   68  45  42 SE8       30.08F
$$

INZ001>003-010>013-019-020-250000-
NORTHWEST INDIANA

CITY           SKY/WX    TMP DP  RH WIND       PRES   REMARKS
GARY*          MOSUNNY   70  52  52 NE7       30.10S
MICHIGAN CITY* NOT AVBL
RENSSELAER*    NOT AVBL
VALPARAISO     SUNNY     71  53  52 N7        30.10R
$$

LMZ740>746-250000-
SOUTHERN LAKE MICHIGAN

STATION/POSITION TIME  SKY/WX   TEMP WIND        PRES    VSBY
                                AIR  DIR/SP/G
                 (UTC)          (F)  (DEG/KT/KT) (MB)    (MI)
HARRISON CRIB    2300            65   10/  6/  8   N/A
BURNHAM HARBOR   NOT AVBL
CALUMET HARBOR   2300            67   10/  6/  9 1018.0F
BURNS HARBOR     2300            66   30/  8/  9 1020.0S
MICHIGAN CITY    2300            66  340/  9/ 11   N/A
$$

ABBREVIATIONS USED IN REMARKS
   TC - TEMPERATURE IN CELSIUS
  WCI - WIND CHILL INDEX
   HX - HEAT INDEX
  VSB - VISIBILITY
$$



USA.gov is the U.S. government's official web portal to all federal, state and local government web resources and services.